SCP
0 0 0 0 0 0 0 0 0 0 1 1 1 1 1 0 0 0 0 0 0 0 0 0 0 0 1 1 1 1 1 1 0 0 0 0 0 0 0 0 0 0 0
0 0 0 0 0 0 0 0 0 0 0 0 1 1 0 0 0 0 0 0 0 0 1 1 1 1 1 1 1 1 1 1 1 1 0 0 0 0 0 0 0 0 0
0 0 0 0 0 0 0 0 0 0 0 0 0 0 0 0 0 0 0 0 0 0 1 1 1 1 1 1 1 1 1 1 1 1 1 1 0 0 0 0 0 0 0
0 0 0 0 0 0 0 0 0 0 0 0 0 0 0 0 0 0 0 0 0 0 1 1 1 1 1 1 1 1 1 1 1 1 1 1 0 0 0 0 0 0 0
0 0 0 0 0 0 0 0 0 0 0 0 0 0 0 0 0 0 0 0 0 0 0 1 1 1 1 1 1 1 1 1 1 1 1 1 1 0 0 0 0 0 0
0 0 0 0 0 0 0 0 0 0 0 0 0 0 0 0 0 0 0 0 0 0 0 0 1 1 1 1 1 1 1 1 1 1 1 1 1 0 0 0 0 0 0
0 0 0 0 0 0 0 0 0 0 0 0 0 0 0 0 0 0 0 0 0 0 0 0 0 1 1 1 1 1 1 1 1 1 1 1 1 0 0 0 0 0 0
0 0 0 0 0 0 0 0 0 0 0 0 0 0 0 0 0 0 0 0 0 0 0 0 0 0 0 1 1 1 1 1 1 1 1 1 1 0 0 0 0 0 0
0 0 0 0 0 0 0 0 0 0 0 0 0 0 0 0 0 0 0 0 0 0 0 0 0 0 0 0 0 0 0 1 1 1 1 1 1 1 0 0 0 0 0
0 0 0 0 0 0 0 0 0 0 0 0 0 0 0 0 0 0 0 0 0 0 0 0 0 0 0 0 0 0 0 0 0 0 1 1 1 1 0 0 0 0 0
0 0 0 0 0 0 0 0 0 0 0 0 0 0 0 0 0 0 0 0 0 0 0 0 0 0 0 0 0 0 0 0 0 0 1 1 1 1 1 0 0 0 0
0 0 0 0 0 0 0 0 0 0 0 0 0 0 0 0 0 0 0 0 0 0 0 0 0 0 0 0 0 0 0 0 0 0 0 1 1 1 1 0 0 0 0
0 0 0 0 0 0 0 0 0 0 0 0 0 0 0 0 0 0 0 0 0 0 0 0 0 0 0 0 0 0 0 0 0 0 0 0 0 0 0 0 0 0 0
0 0 0 0 0 0 0 0 0 0 0 0 0 0 0 0 0 0 0 0 0 0 0 0 0 0 0 0 0 0 0 0 0 0 0 0 0 0 0 0 0 0 0
0 0 0 0 0 0 0 0 0 0 0 0 0 0 0 0 0 0 0 0 0 0 0 0 0 0 0 0 0 0 0 0 0 0 0 0 0 0 0 0 0 0 0
0 0 0 0 0 0 0 0 0 0 0 0 0 0 0 0 0 0 0 0 0 0 0 0 0 0 0 0 0 0 0 0 0 0 0 0 0 0 0 0 0 0 0
0 0 0 0 0 0 0 0 0 0 0 0 0 0 0 0 0 0 0 0 0 0 0 0 0 0 0 0 0 0 0 0 0 0 0 0 0 0 0 0 0 0 0
0 0 0 0 0 0 0 0 0 0 0 0 0 0 0 0 0 0 0 0 0 0 0 0 0 0 0 0 0 0 0 0 0 0 0 0 0 0 0 0 0 0 0
0 0 0 0 0 0 0 0 0 0 0 0 0 0 0 0 0 0 0 0 0 0 0 0 0 0 0 0 0 0 0 0 0 0 0 0 0 0 0 0 0 0 0
0 0 0 0 0 0 0 0 0 0 0 0 0 0 0 0 0 0 0 0 0 0 0 0 0 0 0 0 0 0 0 0 0 0 0 0 0 0 0 0 0 0 0
0 0 0 0 0 0 0 0 0 0 0 0 0 0 0 0 0 0 0 0 0 0 0 0 0 0 0 0 0 0 0 0 0 0 0 0 0 0 0 0 0 0 0
0 0 0 0 0 0 0 0 0 0 0 0 0 0 0 0 0 0 0 0 0 0 0 0 0 0 0 0 0 0 0 0 0 0 0 0 0 0 0 0 0 0 0
0 0 0 0 0 0 0 0 0 0 0 0 0 0 0 0 0 0 0 0 0 0 0 0 0 0 0 0 0 0 0 0 0 0 0 0 0 0 0 0 0 0 0
0 0 0 0 0 0 0 0 0 0 0 0 0 0 0 0 0 0 0 0 0 0 0 0 0 0 0 0 0 0 0 0 0 0 0 0 0 0 0 0 0 0 0
0 0 0 0 0 0 0 0 0 0 0 0 0 0 0 0 0 0 0 0 0 0 0 0 0 0 0 0 0 0 0 0 0 0 0 0 0 0 0 0 0 0 0
0 0 0 0 0 0 0 0 0 0 0 0 0 0 0 0 0 0 0 0 0 0 0 0 0 0 0 0 0 0 0 0 0 0 0 0 0 0 0 0 0 0 0
Wind_Speed
1 1 1 1 2 2 2 3 3 4 5 6 6 8 8 8 8 8 6 15 17 16 18 19 20 21 21 21 21 20 20 19 17 16 16 15 15 15 15 14 14 13 12
0 0 1 1 1 2 2 2 3 4 4 4 6 7 8 8 9 9 8 10 17 16 17 19 19 21 22 22 22 21 21 20 19 18 17 16 15 16 16 15 14 14 13
1 1 1 1 1 2 2 2 3 3 3 4 5 7 7 8 9 10 9 8 8 14 17 17 18 20 22 23 23 23 22 21 20 19 18 17 16 16 16 15 15 14 13
1 0 1 1 1 1 2 2 2 2 3 3 4 5 6 6 9 10 9 9 8 8 12 17 17 18 21 23 24 23 22 21 20 20 20 19 18 17 16 16 15 14 14
2 1 1 2 2 2 2 2 2 2 3 4 5 5 5 6 8 9 10 11 10 9 7 10 16 18 21 23 24 23 22 22 21 21 22 21 21 19 18 17 16 16 15
3 2 2 2 2 2 2 2 2 2 3 3 5 6 5 7 7 8 10 9 9 11 10 9 8 11 19 20 21 22 22 22 22 22 23 23 22 21 20 19 18 17 17
3 2 2 3 2 2 3 3 2 2 2 2 3 4 5 6 7 7 7 7 9 10 9 9 8 7 7 16 19 20 21 22 22 22 23 23 23 22 21 20 19 19 18
4 3 3 3 3 2 3 2 1 1 2 1 2 3 4 4 3 5 5 6 8 7 9 11 9 9 8 7 11 19 20 21 22 22 23 23 23 21 21 21 20 20 19
4 4 4 3 3 2 3 3 2 2 2 2 1 2 3 3 4 3 4 4 5 5 7 7 10 10 11 9 8 14 20 21 23 24 23 23 22 21 22 22 22 21 20
4 4 4 3 3 2 3 3 2 2 2 2 2 2 3 3 4 5 3 2 4 5 7 7 9 10 10 8 10 13 17 20 23 24 24 24 24 23 22 23 23 22 21
4 4 4 3 3 2 3 3 2 2 2 2 2 2 2 2 3 4 5 4 3 4 5 6 6 7 9 9 9 12 17 19 20 21 22 23 23 24 23 24 24 24 23
4 4 4 3 3 2 3 3 3 3 3 3 3 2 2 2 2 2 4 5 5 4 4 4 5 6 6 8 12 16 18 18 18 19 20 21 22 23 24 24 25 24 23
3 5 4 3 3 3 4 3 3 3 3 4 4 3 3 4 3 3 4 4 5 4 3 2 3 4 5 6 8 15 17 17 17 18 18 19 21 22 22 23 23 23 23
5 6 5 5 5 4 4 3 3 4 3 4 5 4 4 4 3 3 3 3 4 4 3 3 1 2 3 4 7 12 10 16 17 17 17 18 19 20 20 21 21 20 20
5 6 5 5 5 5 5 4 4 5 4 4 5 5 4 4 4 4 4 3 3 4 3 3 2 2 2 3 5 7 8 12 16 16 16 17 17 18 19 19 19 18 17
5 6 6 6 6 6 5 4 5 5 5 5 4 5 5 4 4 4 4 4 4 4 4 3 2 3 4 3 3 4 6 9 13 15 15 15 16 17 18 18 18 17 16
6 6 7 7 7 7 6 5 6 6 6 6 6 6 6 6 4 4 4 4 4 4 5 4 3 3 4 3 2 1 1 3 5 11 13 13 14 15 16 16 16 16 16
7 7 7 7 8 8 7 6 8 7 7 7 7 7 7 6 6 5 4 5 5 5 5 5 3 3 3 2 1 1 1 1 2 6 10 11 11 13 14 14 15 15 15
7 7 7 8 8 8 8 8 8 8 8 8 8 8 8 7 7 6 6 6 5 5 5 4 4 2 2 1 0 1 2 2 3 4 6 7 9 10 11 12 13 13 13
7 8 8 8 9 9 9 9 9 9 8 8 8 8 9 8 9 8 6 7 6 6 5 5 4 3 3 2 2 2 2 2 2 3 5 5 7 8 9 11 12 12 12
8 8 8 9 9 8 8 9 8 9 9 9 8 8 9 11 12 10 7 7 7 6 5 5 4 3 3 3 3 2 3 3 2 2 4 3 4 4 4 7 9 11 11
8 8 8 9 9 8 10 13 11 9 9 10 10 9 9 11 13 14 15 14 11 9 8 6 5 5 4 4 3 3 4 4 3 3 4 3 3 4 3 3 7 10 11
7 8 8 8 9 11 14 15 15 10 10 10 10 9 9 9 11 9 11 13 13 16 14 9 7 7 5 5 4 6 5 5 3 6 5 3 3 3 3 4 9 10 11
7 8 9 9 9 11 13 13 14 10 9 10 11 11 11 10 10 10 10 9 9 9 12 11 9 8 7 5 4 4 5 4 4 4 4 4 3 3 3 4 7 10 11
8 8 8 9 9 11 12 13 11 7 8 10 10 10 11 11 12 13 11 10 10 9 10 12 11 10 9 8 5 4 6 6 5 4 2 5 4 3 3 3 5 9 11
8 8 9 8 9 10 11 12 10 5 7 8 8 9 12 13 13 13 11 10 11 9 8 7 9 9 9 9 10 7 6 6 5 4 4 5 5 5 4 2 2 4 7
Wind_Direction
258 268 270 288 291 290 284 283 272 265 256 246 237 232 231 231 231 228 228 231 229 228 230 230 224 218 212 206 204 203 202 202 198 195 193 191 187 185 185 184 182 180 179
297 318 319 319 308 302 292 284 279 273 264 254 251 243 237 235 235 231 229 235 234 230 230 232 229 224 218 212 208 205 204 204 202 199 197 196 193 190 190 189 187 185 184
16 7 347 325 313 311 305 295 288 276 269 261 258 254 246 239 238 235 231 227 230 232 231 232 231 226 221 217 212 208 206 206 204 201 199 198 196 194 193 191 190 189 187
355 14 314 299 308 314 312 304 293 291 281 274 267 261 254 248 246 241 234 227 222 225 230 232 232 227 223 220 217 213 209 207 206 203 201 200 198 197 195 193 192 191 190
348 354 308 303 320 321 318 311 310 285 285 286 279 266 254 250 249 247 239 232 224 219 218 229 233 228 225 224 221 218 213 210 208 206 205 204 202 199 197 196 194 193 192
348 346 316 315 329 320 312 310 297 283 270 281 290 282 264 252 247 242 241 236 227 222 219 223 226 229 227 224 222 219 218 217 212 210 208 207 205 202 199 198 197 196 195
343 333 317 314 313 288 285 296 293 298 290 297 301 294 278 253 244 243 239 235 229 224 219 218 218 220 223 221 220 219 219 221 218 216 212 209 208 204 201 200 199 198 197
338 334 324 306 297 283 289 290 277 300 296 315 306 309 314 312 274 246 235 235 235 226 223 221 217 216 219 215 217 218 219 222 222 221 216 211 209 205 202 202 201 200 199
324 319 312 302 291 258 261 266 253 238 275 300 266 283 307 310 319 290 251 244 240 230 228 223 221 219 218 214 213 217 219 220 221 221 218 215 210 205 203 203 203 202 202
312 311 308 306 295 270 258 261 240 226 225 267 292 255 250 267 291 310 302 274 261 246 235 229 227 223 217 212 213 212 218 219 220 221 218 215 210 205 204 204 205 205 204
303 304 303 301 301 285 272 264 258 232 220 229 245 267 274 271 257 282 301 319 309 266 246 233 225 222 217 213 213 217 218 219 218 219 216 212 209 206 206 206 208 208 207
300 303 301 293 291 288 287 279 258 243 231 233 239 238 242 261 281 285 294 308 306 294 270 242 230 225 218 215 217 215 215 215 215 215 213 210 209 207 207 208 209 210 209
290 294 302 291 285 282 285 283 272 262 243 236 239 239 237 241 248 259 278 292 298 297 291 271 239 233 228 217 218 217 218 213 212 212 209 207 205 204 205 207 209 210 210
270 278 283 279 276 276 281 278 273 269 255 247 250 244 243 248 243 243 254 289 306 300 288 285 294 253 253 235 227 218 222 215 211 208 205 203 201 200 200 203 205 206 207
271 273 277 279 277 273 268 265 260 267 268 260 257 252 247 250 245 244 244 243 267 296 301 299 308 349 319 265 239 220 218 215 209 204 202 200 198 197 198 198 199 199 201
270 278 279 278 278 276 270 261 259 260 261 262 258 257 253 252 249 243 240 240 235 252 276 300 314 324 325 310 264 232 218 206 203 198 198 198 197 195 194 193 194 195 198
275 274 276 278 278 278 273 262 259 258 254 260 262 258 259 256 251 247 238 237 237 235 260 280 280 307 312 317 328 302 207 185 189 191 191 191 191 192 191 191 191 192 194
278 275 277 278 278 277 271 265 265 264 253 255 257 256 260 261 251 248 238 237 237 233 245 273 289 295 299 314 315 88 73 103 144 172 180 182 185 187 187 186 188 189 190
280 281 278 277 278 278 276 270 263 262 257 252 250 249 253 254 254 249 242 240 238 237 230 247 271 281 277 270 122 100 100 90 91 124 143 158 171 177 179 180 183 185 186
279 279 278 275 275 277 277 274 269 265 262 257 250 246 247 245 246 247 244 240 238 236 231 235 250 261 262 241 188 168 144 120 103 102 102 108 132 145 160 168 173 175 177
281 276 278 277 276 275 270 266 265 268 264 263 257 248 245 245 244 243 239 235 230 229 226 226 233 238 243 228 197 174 162 137 107 125 118 105 114 118 133 149 159 163 166
284 281 277 276 278 274 272 271 272 271 268 265 264 257 250 254 256 253 248 240 224 221 221 218 222 226 232 231 202 179 161 161 161 156 128 100 96 103 95 120 141 148 153
284 285 280 276 275 273 271 273 274 272 267 264 262 259 257 253 245 242 248 251 242 229 219 213 216 219 222 219 207 191 187 177 162 157 133 107 88 90 67 94 125 135 141
283 283 283 280 278 277 275 274 276 274 266 263 259 255 253 253 246 238 242 246 247 240 228 223 221 221 219 214 213 207 183 147 110 134 124 117 109 92 69 71 104 124 130
288 285 282 280 279 281 279 278 278 273 266 266 263 258 251 250 243 233 235 240 244 245 239 226 220 221 215 208 201 186 179 171 159 148 118 122 126 105 78 62 76 104 118
286 289 286 281 276 278 281 281 281 265 266 269 269 263 254 249 243 231 231 230 234 237 231 222 219 221 218 214 205 201 191 186 164 154 160 131 135 137 120 78 67 91 101